Vertical_Velocity
1 1 1 1 1 1 0 -0 -1 -1 -0 -0 -0 -0 -1 -1 -1 -1 -1 -1 -1 -1 -1 -1 -0 -0 0 0 1 1 0 0 -0 -0 -0 -1 -1 -1 -1 -1 -1 -1 -1 -1 -1 -1 -1 -1 -1 -1 -1 -1 -1 -1 -1 -0 -0 -1 -1 -1 -1 -1 -0 -0 -1 -1 -1 -1 -1
1 1 1 1 0 -0 -0 -1 -1 -1 -1 -1 -0 -0 -0 -1 -1 -1 -1 -1 -1 -1 -1 -1 -0 -0 -0 0 0 0 0 -0 -0 -1 -1 -1 -1 -1 -1 -1 -1 -1 -0 -1 -1 -1 -1 -1 -1 -1 -1 -1 -0 -0 -0 -0 1 0 -0 -1 -1 -0 0 -0 -1 -1 -1 -1 -1
1 1 1 0 -0 -0 -1 -1 -1 -1 -1 -1 -0 -0 -0 -1 -1 -1 -1 -1 -1 -1 -1 -1 -1 -0 0 -0 0 0 -0 -0 -1 -1 -1 -1 -1 -1 -1 -1 -1 -1 -0 -0 -1 -1 -1 -1 -1 -0 -1 -1 -0 -0 -0 -0 1 1 0 -1 -0 -0 0 -0 -1 -1 -0 -0 -1
1 1 0 0 -0 -0 -1 -1 -1 -1 -1 -1 -1 -0 -0 -1 -1 -1 -1 -1 -1 -1 -1 -0 -0 -0 0 0 -0 -0 -0 -1 -1 -1 -1 -1 -1 -1 -1 -1 -1 -1 -1 -0 -0 -1 -1 -1 -1 -0 -0 -0 -0 -0 -0 -0 1 1 0 -0 -0 0 -0 -1 -1 -0 -0 -0 -1
0 0 0 0 0 -0 -0 -0 -0 -1 -1 -1 -1 -1 -1 -1 -1 -1 -1 -1 -1 -1 -0 -0 0 0 0 1 0 -0 -1 -1 -1 -1 -1 -1 -1 -1 -1 -1 -1 -1 -1 -0 -0 -0 -1 -1 -1 -0 -0 -0 0 0 0 0 1 0 -0 -0 -0 -0 -0 -0 -1 -0 -0 -0 -1
0 0 0 0 0 -0 -0 -0 -0 -0 -1 -1 -1 -1 -1 -1 -1 -1 -1 -1 -1 -1 -0 0 0 0 0 0 0 -0 -0 -1 -1 -1 -1 -1 -1 -1 -1 -1 -1 -1 -1 -1 -0 -0 -0 -0 -1 -1 -0 0 -0 0 1 1 1 1 -0 -1 -1 -1 -0 -0 -0 -0 -0 -0 -0
1 1 1 0 0 0 0 -0 -0 -0 -0 -1 -1 -1 -1 -1 -1 -1 -1 -1 -0 -0 -0 0 0 0 0 0 -0 -0 -0 -0 -1 -0 -0 -1 -1 -1 -1 -1 -1 -1 -1 -1 -1 -1 -1 -0 -0 -1 -1 -0 -0 -0 0 1 1 1 0 -1 -1 -1 -0 -1 -1 -0 0 -0 -0
1 1 1 0 0 0 0 0 -0 -0 -0 -1 -1 -1 -1 -0 -0 -0 -0 -0 -0 -0 -0 -0 0 0 0 0 0 -0 -0 -0 -0 -0 -0 -0 -1 -1 -1 -1 -1 -1 -1 -1 -1 -1 -1 -1 -0 -1 -1 -1 -1 -0 -0 1 1 1 1 -0 -1 -1 -0 -1 -1 -0 0 0 -0
1 1 0 0 0 1 1 0 0 -0 -0 -0 -0 -0 -0 -0 -0 0 0 0 -0 -0 -0 -0 0 0 1 1 0 0 0 0 -0 -0 -0 -0 -1 -1 -1 -1 -1 -1 -1 -0 -0 -1 -1 -1 -1 -1 -1 -1 -1 -1 -1 0 0 0 1 1 -0 -1 -1 -1 -1 -1 -0 1 0
1 0 0 0 0 1 1 1 0 0 -0 -0 -0 -0 0 0 1 1 1 1 0 -0 -0 -0 0 0 1 1 1 0 0 0 -0 -0 -0 -0 -0 -1 -1 -1 -1 -1 -1 -1 -1 -1 -1 -1 -1 -1 -1 -1 -1 -1 -1 0 0 0 0 1 1 -0 -1 -2 -2 -1 -1 0 0
1 0 0 1 0 1 1 1 0 0 0 0 0 0 1 1 1 1 1 1 1 0 -0 0 1 1 1 1 1 1 0 0 -0 -0 -0 -1 -0 -0 -1 -1 -1 -1 -1 -1 -1 -1 -1 -1 -1 -1 -1 -1 -1 -1 -1 -0 1 1 0 0 1 0 -1 -2 -2 -2 -1 -0 0
1 1 0 1 1 1 1 1 0 0 0 1 1 1 1 1 1 1 1 1 0 -0 -0 1 1 1 1 1 1 1 0 0 0 -0 -0 -1 -1 -0 -1 -1 -1 -1 -1 -1 -1 -1 -0 -0 -0 -1 -1 -2 -1 -1 -1 -0 1 1 1 0 1 0 -0 -2 -2 -2 -1 -0 -0
1 1 1 1 1 1 1 1 1 1 1 1 1 1 1 1 1 1 1 1 0 0 0 1 1 1 1 1 1 1 0 0 0 -0 -0 -1 -0 -0 -1 -1 -1 -1 -1 -1 -1 -1 -0 -0 0 -0 -1 -2 -2 -1 -1 -0 0 1 1 0 0 -0 -1 -2 -2 -2 -2 -1 -0
1 1 1 1 1 1 1 1 1 1 1 1 1 1 1 1 1 1 1 0 0 0 0 0 1 1 1 1 1 1 0 0 -0 -0 -0 -1 -0 -0 -0 -1 -1 -1 -1 -1 -1 -0 -0 -0 0 0 0 -1 -1 -1 -1 -0 0 0 1 1 0 -0 -1 -1 -2 -2 -2 -1 -1
1 1 1 1 1 1 1 1 2 2 2 1 1 1 1 0 0 1 1 0 0 0 1 1 0 0 1 1 1 1 0 0 0 -0 -0 -0 -0 -0 -0 -1 -0 -0 -1 -1 -1 -1 -0 -0 0 0 1 0 -1 -1 -1 -1 -0 0 0 1 0 -0 -1 -1 -2 -2 -1 -1 -1
1 1 1 1 1 2 2 2 2 2 2 1 1 1 0 0 0 0 0 0 0 0 1 1 0 0 0 0 1 1 0 0 0 0 -0 -0 -0 -0 -0 -0 -0 -0 -0 -1 -1 -1 -1 -0 0 1 1 0 0 -0 -1 -1 -0 -0 -0 -0 0 -0 -0 -1 -1 -1 -1 -1 -0
1 1 1 2 2 2 2 2 2 2 1 1 1 0 0 -0 -0 0 0 0 0 0 0 0 1 1 0 -0 0 1 1 0 0 0 0 -0 0 -0 -0 -0 -0 -0 -0 -1 -1 -1 -2 -1 -1 -0 1 1 1 0 0 -0 -0 -0 -0 -0 -0 -0 -1 -1 -1 -1 -1 -1 -0
1 1 2 2 2 2 1 1 1 1 1 1 0 0 0 0 -0 -0 -0 -0 0 0 -0 -0 0 1 1 0 0 1 1 0 0 0 0 0 0 0 -0 -1 -1 -1 -1 -1 -1 -1 -1 -2 -1 -1 -0 0 1 1 1 1 1 0 0 -0 -0 -0 -1 -1 -1 -1 -0 -0 -0
1 2 2 2 1 1 1 1 1 1 1 0 0 -0 -0 -0 -0 -0 -0 -1 -0 0 0 -0 -0 0 1 1 0 0 1 1 0 0 0 0 0 0 -0 -0 -1 -1 -1 -1 -1 -1 -1 -1 -1 -1 -1 -0 0 0 1 1 1 1 1 1 0 -0 -1 -1 -1 -1 -1 -0 -0
1 1 1 1 1 1 1 1 1 0 0 0 0 -0 -0 -0 -0 -0 -0 -1 -0 -0 0 0 0 0 0 0 0 0 0 1 1 0 -0 -0 -0 -0 -0 -0 -1 -1 -1 -1 -1 -0 -0 -0 -0 -0 -0 -0 0 0 0 1 1 1 1 1 1 0 -0 -0 -1 -1 -1 -1 -0
1 1 1 0 0 0 0 0 0 0 0 -0 -0 -0 -0 -0 -0 -0 -0 -0 -0 -0 -0 0 0 0 0 0 0 -0 -0 0 1 0 -0 -0 -0 -1 -0 -0 -0 -1 -1 -1 -1 -0 0 0 0 -0 -0 0 0 1 1 1 1 1 1 1 1 1 0 -0 -1 -1 -1 -1 -1
1 0 0 0 0 0 0 0 0 0 -0 -0 -0 -0 0 0 0 0 -0 -0 -0 -0 -0 -0 0 0 0 -0 -0 -1 -1 -1 -0 -0 -0 -0 -1 -1 -0 0 -0 -1 -1 -1 -1 -0 -0 0 0 0 0 0 1 1 1 2 2 2 2 2 1 1 0 -0 -1 -1 -2 -2 -2
0 0 0 0 1 0 0 0 0 0 -0 -0 -0 -0 0 0 0 0 0 0 -0 -0 -0 -0 0 -0 -0 -0 -0 -1 -1 -2 -1 -1 -1 -0 -0 -0 -0 0 0 -0 -1 -1 -1 -0 -0 0 -0 -0 -0 1 1 1 1 2 2 2 2 2 1 1 0 -1 -1 -2 -2 -2 -2
0 0 0 0 0 0 0 0 -0 -0 -0 -0 -0 0 0 0 0 0 0 -0 -0 -0 0 -0 0 -0 -0 -0 -0 -1 -1 -1 -2 -2 -2 -1 -0 -0 -0 -0 -0 -0 -1 -1 -1 -0 0 1 0 -0 -0 0 1 1 1 2 1 1 2 2 1 1 1 0 -0 -1 -2 -2 -2
0 0 0 0 0 0 -0 -0 -0 -0 -0 -0 0 0 1 1 1 0 0 -0 -0 -0 0 0 -0 -0 0 -0 -1 -1 -0 -1 -1 -1 -1 -1 -1 -0 -0 -0 -1 -1 -1 -1 -1 -1 -0 1 1 1 1 1 1 2 2 2 2 2 1 1 1 1 1 1 1 0 -0 -1 -1
0 0 0 0 0 -0 -0 -0 -0 -0 -0 -0 0 1 1 1 1 0 -0 -1 -1 -0 0 0 0 0 0 0 -0 -1 -1 -0 0 1 1 0 -0 -0 -1 -1 -1 -2 -2 -2 -2 -1 -1 -0 -0 -0 0 1 2 3 3 3 3 3 2 2 2 2 2 2 2 2 1 1 0
0 0 0 -0 -0 -0 -0 -0 -0 -0 -0 0 1 1 1 1 0 -0 -1 -1 -1 -0 0 1 1 1 1 1 0 -0 -1 -0 0 1 1 2 2 1 -0 -1 -1 -2 -3 -3 -2 -2 -1 -1 -1 -2 -2 -1 0 2 4 4 4 3 3 2 2 2 2 2 2 2 2 1 1
0 0 0 -0 -0 -0 -0 -0 -0 -0 0 1 1 1 1 1 -0 -0 -1 -1 -1 -0 0 1 1 2 2 1 0 0 0 -0 0 1 1 2 2 2 1 0 -1 -2 -3 -3 -3 -2 -1 -1 -1 -2 -3 -3 -2 -0 2 3 2 2 2 2 1 1 1 1 1 2 2 2 1
0 0 -0 -0 -0 -0 -0 -0 -0 0 1 1 1 1 1 0 -0 -1 -1 -1 -1 -0 0 0 1 1 1 1 0 1 1 0 0 1 1 1 1 2 1 1 -0 -2 -3 -3 -3 -2 -1 -1 -1 -2 -3 -3 -3 -2 -0 1 1 1 1 1 1 1 0 -0 -0 0 1 1 1
0 0 0 0 -0 -0 -0 -0 0 1 1 2 2 1 1 -0 -1 -1 -1 -1 -0 -0 0 1 1 1 1 0 0 1 1 0 0 1 1 1 1 1 1 1 0 -1 -2 -3 -3 -3 -2 -1 -1 -2 -2 -3 -3 -2 -1 -0 -0 0 0 0 0 0 -0 -1 -1 -1 -1 -1 -0
1 1 1 0 0 0 0 0 0 1 1 1 1 1 0 -0 -1 -1 -1 -0 -0 -0 0 1 1 1 0 0 1 1 1 0 0 0 0 0 0 0 0 1 -0 -1 -2 -3 -3 -3 -2 -2 -2 -2 -2 -3 -3 -3 -2 -1 -1 -0 -0 0 0 -0 -1 -1 -2 -2 -2 -2 -1
1 1 1 1 1 0 0 1 1 1 1 1 1 0 -0 -0 -1 -1 -1 -0 -0 -0 -0 0 1 0 -0 -0 1 1 1 1 1 0 -0 -0 -0 -0 0 1 0 -1 -2 -3 -3 -3 -3 -2 -2 -2 -2 -3 -3 -2 -2 -1 -1 -0 -0 1 1 -0 -1 -2 -2 -2 -2 -2 -1
2 2 2 2 1 1 0 1 1 1 1 1 0 -0 -0 -1 -1 -1 -1 -0 0 1 1 0 0 0 0 1 1 1 1 1 1 0 -1 -1 -1 -1 -0 1 1 -0 -1 -3 -4 -4 -3 -3 -2 -2 -2 -3 -2 -2 -1 -1 -0 -0 0 1 1 1 -0 -2 -2 -2 -2 -2 -1
2 2 2 1 1 1 0 0 1 1 1 0 -0 -0 -0 -1 -1 -1 -1 -1 0 1 1 1 1 1 1 1 2 2 1 1 1 1 -1 -2 -2 -1 -0 1 1 1 -0 -3 -4 -4 -4 -3 -3 -2 -2 -2 -2 -1 -0 -1 -1 -0 1 1 1 0 -0 -1 -2 -2 -1 -0 -1
3 2 1 1 0 0 0 -0 0 0 0 0 -0 -1 -0 -0 0 -0 -0 -1 -0 0 1 1 1 2 2 1 2 2 2 1 1 0 -0 -1 -2 -1 -0 1 2 2 0 -2 -4 -4 -4 -3 -3 -2 -2 -2 -2 -1 -0 -0 -0 -0 0 1 1 0 -0 -1 -2 -1 -0 0 0
2 1 1 -0 -0 -0 -0 -0 -0 0 0 -0 -0 -0 -0 -0 0 0 -0 -0 0 1 1 1 1 2 1 1 1 1 2 2 1 -0 -1 -1 -1 -1 -0 1 3 2 1 -1 -4 -4 -4 -3 -3 -3 -3 -3 -2 -1 -1 -0 -0 -0 1 1 1 1 -0 -1 -1 -1 0 1 0
1 1 0 -0 -0 -0 -0 -0 0 0 -0 -0 -0 0 1 1 0 -0 -0 1 1 1 1 2 2 1 1 0 0 0 1 1 0 -0 -1 -1 -1 -1 -0 1 3 4 2 -0 -3 -4 -4 -3 -3 -3 -3 -3 -3 -2 -1 -1 -1 -0 1 1 1 1 1 0 -0 1 2 2 1
-0 -0 -0 -0 -1 -1 -0 -0 0 0 0 -0 0 1 1 1 1 0 -0 1 1 1 1 1 1 1 -0 -0 0 0 1 1 0 -0 -0 -1 -1 -0 -0 1 3 4 4 2 -1 -3 -3 -3 -3 -3 -3 -4 -4 -3 -2 -2 -2 -1 0 1 1 0 0 1 1 1 2 4 3
-0 -0 -0 -0 -0 -0 -0 0 0 0 0 1 1 1 1 1 1 0 -0 0 1 1 1 1 0 -0 -0 -0 -0 0 1 1 1 0 -0 -0 -0 -0 0 1 2 4 4 3 0 -1 -2 -2 -2 -3 -3 -4 -5 -4 -3 -3 -2 -1 -0 1 0 -1 -1 1 3 3 3 2 4
-0 -0 -0 -0 -0 -0 0 0 0 0 1 1 1 1 1 1 0 -0 -1 -0 -0 -0 -0 0 0 -0 -0 -0 0 1 1 2 2 1 1 -0 -0 0 1 1 1 3 4 4 2 -0 -1 -2 -2 -2 -3 -4 -5 -5 -4 -3 -3 -2 -1 -0 -0 -1 -1 -1 2 4 5 3 3
-0 0 0 0 0 0 1 1 0 0 1 2 1 1 0 0 -0 -1 -1 -1 -1 -1 -1 -0 -0 0 0 0 0 1 1 2 2 2 2 0 0 1 1 1 1 1 2 3 2 0 -1 -1 -1 -2 -2 -3 -5 -6 -5 -2 -3 -3 -3 -2 -2 -2 -1 -0 1 2 5 6 4
Height
5760 5759 5759 5759 5758 5757 5757 5756 5755 5755 5754 5754 5753 5752 5751 5750 5750 5749 5748 5747 5746 5745 5744 5743 5742 5741 5740 5739 5738 5737 5735 5734 5733 5732 5730 5729 5728 5727 5725 5724 5723 5722 5720 5719 5718 5716 5714 5713 5712 5710 5709 5707 5706 5704 5703 5702 5700 5699 5697 5696 5694 5693 5692 5690 5689 5687 5686 5684 5683
5757 5757 5756 5756 5755 5754 5754 5753 5752 5752 5751 5750 5750 5749 5748 5747 5746 5745 5744 5744 5743 5742 5741 5740 5739 5738 5737 5735 5734 5733 5732 5730 5729 5728 5727 5725 5724 5723 5722 5721 5719 5718 5717 5715 5714 5712 5711 5709 5708 5706 5705 5704 5702 5701 5699 5698 5696 5694 5693 5691 5690 5689 5688 5686 5684 5683 5682 5680 5678
5754 5754 5754 5753 5752 5752 5751 5750 5749 5749 5748 5748 5747 5746 5745 5744 5743 5742 5741 5740 5739 5739 5738 5737 5736 5734 5734 5732 5731 5730 5728 5727 5726 5724 5723 5722 5721 5720 5719 5717 5716 5714 5713 5712 5710 5709 5707 5706 5704 5703 5701 5699 5698 5697 5695 5694 5692 5691 5689 5687 5686 5685 5683 5682 5680 5679 5677 5676 5674
5752 5751 5751 5750 5749 5749 5748 5747 5747 5746 5745 5744 5744 5743 5742 5741 5740 5739 5738 5737 5736 5735 5734 5734 5732 5731 5730 5729 5728 5726 5725 5724 5722 5721 5720 5719 5717 5716 5715 5714 5712 5711 5709 5708 5707 5705 5704 5702 5700 5699 5697 5696 5694 5693 5691 5689 5688 5686 5685 5683 5682 5680 5679 5677 5676 5674 5673 5671 5669
5749 5748 5748 5747 5747 5746 5745 5744 5744 5743 5742 5742 5741 5740 5739 5738 5737 5736 5735 5734 5733 5732 5731 5730 5729 5728 5727 5726 5724 5723 5721 5720 5719 5718 5716 5715 5714 5713 5711 5710 5709 5707 5706 5704 5703 5701 5699 5698 5696 5695 5693 5692 5690 5689 5687 5685 5684 5682 5680 5679 5678 5676 5675 5673 5672 5670 5669 5667 5665
5746 5745 5745 5744 5744 5743 5742 5742 5741 5740 5739 5739 5738 5737 5736 5735 5734 5733 5732 5731 5730 5729 5728 5727 5726 5725 5724 5722 5721 5719 5718 5717 5715 5714 5713 5711 5710 5709 5708 5706 5705 5704 5702 5701 5699 5697 5696 5694 5692 5691 5689 5688 5686 5684 5683 5681 5680 5678 5676 5675 5673 5672 5671 5669 5667 5666 5664 5663 5661
5743 5743 5742 5741 5741 5740 5739 5739 5738 5737 5736 5735 5735 5734 5733 5732 5731 5730 5729 5728 5727 5726 5725 5724 5723 5721 5720 5719 5718 5716 5715 5713 5712 5710 5709 5708 5706 5705 5704 5703 5701 5700 5698 5697 5695 5693 5692 5690 5688 5687 5685 5684 5682 5680 5679 5677 5676 5674 5672 5671 5669 5668 5666 5664 5663 5662 5660 5659 5657
5740 5739 5739 5739 5738 5737 5736 5736 5735 5734 5733 5732 5732 5731 5729 5729 5728 5727 5726 5724 5724 5723 5721 5720 5719 5718 5717 5715 5714 5713 5711 5710 5708 5707 5706 5704 5703 5701 5700 5699 5697 5696 5694 5693 5691 5689 5688 5686 5684 5683 5681 5679 5678 5676 5675 5673 5671 5670 5668 5666 5665 5663 5662 5660 5659 5657 5656 5654 5652
5737 5737 5736 5735 5735 5734 5734 5733 5732 5731 5730 5729 5729 5728 5727 5725 5724 5724 5723 5721 5720 5719 5718 5717 5716 5714 5713 5712 5710 5709 5708 5706 5705 5703 5702 5701 5699 5698 5696 5695 5694 5692 5690 5689 5687 5685 5683 5682 5680 5679 5677 5675 5674 5672 5670 5669 5667 5666 5664 5662 5661 5659 5657 5656 5654 5653 5651 5650 5648
5734 5734 5733 5732 5732 5731 5730 5729 5729 5728 5727 5726 5725 5724 5724 5723 5721 5720 5719 5718 5717 5716 5714 5714 5712 5711 5710 5708 5707 5705 5704 5703 5701 5700 5698 5697 5695 5694 5692 5691 5689 5688 5686 5684 5683 5681 5679 5677 5676 5674 5673 5671 5669 5668 5666 5665 5663 5661 5660 5658 5657 5655 5653 5651 5650 5649 5647 5645 5643
5731 5731 5730 5729 5729 5728 5727 5727 5726 5725 5724 5723 5722 5721 5720 5719 5718 5717 5716 5715 5714 5712 5711 5710 5709 5708 5706 5705 5703 5702 5700 5699 5697 5696 5694 5693 5692 5690 5689 5687 5685 5684 5682 5680 5679 5677 5675 5673 5672 5670 5668 5667 5665 5664 5662 5660 5659 5657 5655 5654 5652 5651 5649 5647 5645 5644 5642 5640 5638
5728 5728 5727 5726 5726 5725 5724 5724 5723 5722 5721 5720 5719 5718 5717 5716 5715 5714 5713 5711 5710 5709 5708 5707 5705 5704 5702 5701 5699 5698 5696 5695 5694 5692 5690 5689 5688 5686 5684 5683 5681 5679 5678 5676 5674 5673 5671 5669 5668 5666 5664 5662 5661 5659 5658 5656 5655 5653 5651 5649 5648 5646 5644 5642 5641 5639 5637 5635 5634
5725 5724 5724 5723 5723 5722 5721 5720 5719 5719 5718 5717 5716 5714 5714 5712 5711 5710 5709 5708 5707 5706 5704 5703 5702 5700 5699 5697 5696 5694 5693 5691 5689 5688 5686 5685 5684 5682 5680 5679 5677 5675 5673 5672 5670 5668 5667 5665 5664 5662 5660 5658 5657 5655 5654 5652 5650 5649 5647 5645 5644 5642 5640 5638 5636 5634 5632 5630 5629
5722 5722 5721 5720 5720 5719 5718 5717 5716 5715 5714 5713 5712 5711 5710 5709 5708 5707 5706 5704 5703 5702 5701 5699 5698 5697 5695 5693 5692 5690 5689 5687 5685 5684 5682 5681 5679 5678 5676 5674 5673 5671 5669 5667 5666 5664 5663 5661 5659 5658 5656 5654 5652 5651 5649 5648 5646 5644 5643 5641 5639 5637 5635 5633 5631 5629 5627 5625 5623
5719 5719 5718 5717 5717 5716 5715 5714 5713 5712 5711 5710 5709 5708 5707 5705 5704 5704 5702 5701 5700 5699 5697 5696 5694 5693 5691 5689 5688 5686 5684 5683 5681 5680 5678 5677 5675 5674 5672 5670 5668 5666 5665 5663 5661 5660 5658 5657 5655 5654 5652 5650 5648 5646 5645 5643 5642 5640 5638 5636 5634 5632 5630 5628 5626 5624 5622 5620 5618
5716 5716 5715 5714 5714 5713 5712 5711 5710 5709 5708 5706 5705 5704 5703 5702 5701 5700 5699 5697 5696 5695 5693 5692 5690 5689 5687 5685 5684 5682 5680 5679 5677 5676 5674 5673 5671 5669 5668 5666 5664 5662 5660 5659 5657 5655 5654 5653 5651 5649 5648 5646 5644 5642 5640 5639 5637 5635 5633 5631 5629 5627 5625 5623 5621 5619 5617 5615 5614
5714 5713 5712 5711 5710 5709 5709 5708 5706 5705 5704 5703 5702 5701 5700 5699 5698 5696 5695 5694 5692 5691 5689 5688 5686 5685 5683 5681 5680 5678 5677 5675 5673 5672 5670 5668 5667 5665 5663 5661 5660 5658 5656 5654 5653 5651 5650 5648 5647 5645 5643 5641 5639 5638 5636 5634 5632 5630 5628 5626 5624 5622 5620 5618 5616 5614 5612 5610 5609
5710 5710 5709 5708 5707 5706 5705 5704 5703 5702 5701 5700 5699 5698 5696 5695 5694 5693 5691 5690 5689 5687 5685 5684 5683 5681 5679 5677 5676 5674 5673 5671 5669 5667 5666 5664 5662 5661 5659 5657 5655 5654 5652 5650 5649 5647 5645 5644 5642 5640 5639 5637 5635 5633 5631 5629 5628 5625 5624 5622 5619 5617 5615 5613 5611 5609 5608 5605 5604
5708 5707 5706 5705 5704 5703 5702 5701 5700 5699 5698 5697 5695 5694 5693 5692 5690 5689 5688 5686 5685 5683 5682 5680 5678 5677 5675 5674 5672 5670 5669 5667 5665 5663 5662 5660 5658 5656 5654 5653 5651 5649 5648 5646 5644 5643 5641 5639 5638 5636 5634 5632 5630 5629 5627 5625 5623 5621 5619 5617 5614 5613 5610 5609 5606 5604 5603 5601 5599
5704 5703 5702 5701 5700 5699 5699 5698 5697 5695 5694 5693 5692 5691 5689 5688 5687 5685 5684 5682 5681 5679 5678 5676 5674 5673 5671 5669 5668 5666 5664 5663 5661 5659 5657 5656 5654 5652 5650 5649 5647 5645 5644 5642 5640 5639 5637 5635 5633 5631 5629 5628 5626 5624 5622 5620 5618 5616 5614 5612 5610 5608 5606 5604 5601 5599 5598 5596 5594
5701 5700 5699 5698 5697 5696 5695 5694 5693 5692 5691 5690 5689 5687 5686 5684 5683 5682 5680 5679 5677 5675 5674 5672 5670 5669 5667 5665 5664 5662 5660 5659 5657 5655 5653 5651 5649 5648 5646 5644 5643 5641 5639 5638 5636 5634 5632 5630 5629 5627 5625 5623 5621 5619 5617 5615 5613 5611 5609 5607 5605 5603 5601 5599 5597 5594 5593 5591 5589
5698 5697 5696 5695 5694 5693 5692 5691 5690 5689 5688 5686 5685 5684 5682 5681 5679 5678 5676 5675 5673 5671 5669 5668 5666 5664 5663 5661 5659 5657 5656 5654 5653 5651 5649 5647 5645 5644 5642 5640 5638 5636 5634 5633 5631 5629 5628 5626 5624 5622 5620 5618 5616 5614 5613 5611 5609 5607 5605 5603 5600 5598 5596 5594 5592 5589 5588 5585 5584
5694 5694 5693 5692 5691 5690 5689 5688 5686 5685 5684 5683 5682 5680 5679 5677 5676 5674 5672 5671 5669 5667 5665 5664 5662 5660 5658 5656 5655 5653 5651 5650 5648 5646 5645 5643 5641 5639 5637 5635 5634 5632 5630 5628 5626 5625 5623 5621 5619 5617 5615 5614 5612 5610 5608 5606 5604 5602 5600 5598 5596 5594 5591 5589 5587 5585 5583 5580 5579
5691 5690 5689 5689 5688 5686 5685 5684 5683 5682 5680 5679 5678 5676 5675 5673 5672 5670 5668 5667 5665 5663 5661 5659 5658 5656 5654 5652 5650 5649 5647 5645 5644 5642 5640 5639 5637 5635 5633 5631 5629 5627 5625 5624 5622 5620 5618 5616 5614 5613 5611 5609 5607 5605 5603 5601 5599 5597 5595 5593 5591 5589 5587 5584 5582 5580 5578 5576 5574
5688 5687 5686 5685 5684 5683 5682 5681 5679 5678 5677 5675 5674 5673 5671 5669 5668 5666 5664 5663 5661 5659 5657 5655 5654 5652 5650 5648 5646 5645 5643 5641 5639 5638 5636 5634 5632 5630 5629 5627 5624 5623 5621 5619 5617 5615 5614 5612 5610 5608 5606 5604 5603 5601 5599 5597 5594 5593 5590 5588 5586 5584 5582 5580 5578 5575 5573 5571 5569
5685 5684 5683 5682 5680 5679 5678 5677 5676 5674 5673 5672 5670 5669 5667 5665 5664 5662 5660 5658 5657 5655 5653 5651 5649 5648 5646 5644 5642 5641 5639 5637 5635 5634 5632 5630 5628 5626 5624 5622 5620 5618 5616 5614 5613 5611 5609 5607 5605 5604 5602 5600 5598 5596 5594 5592 5590 5588 5586 5584 5582 5580 5578 5576 5574 5571 5569 5566 5564
5681 5680 5679 5678 5677 5676 5674 5673 5672 5670 5669 5668 5666 5664 5663 5661 5659 5658 5656 5654 5652 5651 5649 5647 5645 5644 5642 5640 5638 5637 5635 5633 5631 5629 5628 5626 5624 5622 5619 5618 5615 5614 5611 5610 5608 5606 5604 5603 5600 5599 5597 5595 5594 5592 5590 5588 5586 5584 5581 5579 5577 5575 5573 5571 5569 5566 5564 5561 5559
5678 5677 5676 5674 5674 5672 5671 5669 5668 5667 5665 5664 5662 5661 5659 5657 5655 5654 5652 5650 5648 5647 5645 5644 5642 5640 5638 5636 5634 5633 5631 5629 5627 5625 5624 5622 5620 5618 5615 5613 5611 5609 5607 5605 5603 5601 5600 5598 5596 5594 5592 5590 5588 5587 5585 5583 5581 5579 5577 5574 5572 5570 5568 5566 5564 5561 5559 5556 5554
5675 5674 5672 5671 5670 5669 5667 5666 5664 5663 5661 5660 5658 5657 5655 5653 5651 5649 5648 5646 5644 5643 5641 5639 5638 5636 5634 5633 5631 5629 5627 5625 5623 5621 5619 5617 5615 5613 5611 5609 5606 5604 5602 5600 5599 5597 5595 5593 5591 5589 5587 5585 5583 5582 5580 5578 5576 5574 5572 5570 5567 5565 5563 5560 5558 5556 5554 5551 5549
5671 5670 5669 5668 5666 5665 5664 5662 5660 5659 5658 5656 5654 5653 5651 5649 5647 5645 5644 5642 5641 5639 5638 5636 5634 5632 5630 5629 5627 5625 5623 5621 5619 5617 5615 5613 5611 5609 5607 5604 5602 5599 5597 5595 5594 5592 5590 5588 5586 5584 5582 5580 5578 5577 5575 5573 5571 5569 5567 5564 5562 5560 5557 5555 5553 5550 5548 5545 5543
5668 5667 5665 5664 5663 5661 5660 5658 5657 5655 5654 5652 5650 5649 5647 5645 5644 5642 5640 5639 5637 5635 5634 5632 5630 5628 5626 5624 5623 5621 5619 5617 5614 5613 5611 5609 5607 5604 5602 5600 5597 5595 5593 5591 5589 5587 5585 5583 5581 5579 5577 5575 5574 5572 5570 5568 5566 5564 5562 5559 5557 5554 5552 5549 5547 5544 5542 5539 5536
5664 5663 5662 5660 5659 5658 5656 5655 5653 5651 5650 5648 5647 5645 5643 5641 5640 5638 5637 5635 5633 5632 5630 5628 5626 5624 5623 5621 5619 5617 5615 5613 5610 5608 5606 5604 5602 5600 5598 5595 5593 5590 5588 5586 5584 5582 5580 5579 5576 5574 5573 5570 5569 5567 5565 5563 5561 5559 5557 5554 5552 5549 5546 5543 5541 5538 5535 5533 5530
5661 5660 5659 5657 5655 5654 5653 5651 5649 5648 5646 5644 5643 5641 5639 5638 5636 5634 5633 5631 5629 5628 5626 5624 5622 5620 5619 5617 5614 5613 5610 5608 5606 5604 5601 5599 5597 5595 5593 5591 5589 5586 5584 5581 5579 5577 5575 5574 5572 5570 5568 5566 5564 5562 5560 5558 5556 5554 5551 5549 5546 5543 5540 5537 5534 5532 5529 5526 5523
5658 5656 5655 5654 5652 5650 5649 5647 5646 5644 5643 5641 5639 5638 5636 5634 5632 5631 5629 5628 5626 5624 5622 5620 5619 5616 5614 5612 5610 5608 5606 5604 5601 5599 5597 5594 5592 5590 5589 5586 5584 5582 5579 5577 5574 5573 5571 5569 5567 5564 5563 5560 5559 5557 5555 5553 5550 5548 5546 5543 5540 5538 5534 5531 5528 5525 5522 5519 5516
5654 5653 5651 5650 5648 5647 5645 5644 5642 5640 5639 5637 5635 5634 5632 5630 5629 5627 5625 5624 5622 5620 5618 5616 5614 5612 5610 5608 5606 5604 5601 5599 5597 5594 5592 5590 5588 5586 5584 5582 5580 5577 5574 5572 5569 5568 5566 5564 5562 5559 5557 5555 5553 5551 5549 5547 5545 5543 5540 5538 5535 5532 5529 5525 5522 5519 5516 5513 5509
5650 5649 5647 5646 5644 5643 5641 5639 5638 5637 5635 5634 5632 5630 5629 5627 5625 5623 5622 5620 5618 5616 5614 5613 5610 5608 5606 5604 5601 5599 5597 5594 5592 5590 5588 5585 5584 5581 5580 5578 5576 5573 5570 5567 5564 5563 5560 5559 5556 5554 5552 5550 5548 5546 5544 5541 5539 5537 5534 5532 5529 5526 5522 5519 5516 5513 5509 5506 5503
5646 5645 5644 5642 5640 5639 5637 5636 5634 5633 5631 5629 5628 5626 5625 5623 5621 5619 5618 5616 5614 5612 5610 5608 5606 5604 5601 5599 5597 5594 5592 5590 5588 5585 5583 5581 5579 5577 5575 5573 5571 5569 5566 5562 5559 5557 5555 5553 5551 5549 5546 5544 5542 5540 5538 5536 5533 5531 5529 5526 5523 5519 5516 5513 5510 5506 5503 5499 5496
5642 5641 5639 5638 5637 5635 5634 5632 5630 5629 5627 5626 5624 5623 5621 5619 5617 5615 5614 5612 5610 5608 5606 5604 5601 5599 5597 5594 5592 5590 5588 5585 5583 5581 5579 5577 5574 5573 5570 5569 5567 5564 5561 5558 5555 5552 5550 5548 5545 5543 5540 5538 5536 5534 5532 5529 5527 5525 5522 5519 5516 5513 5510 5507 5504 5500 5497 5493 5489
5639 5637 5635 5634 5633 5631 5630 5628 5627 5625 5624 5622 5620 5619 5617 5615 5613 5611 5609 5607 5605 5603 5601 5599 5597 5594 5592 5589 5587 5585 5583 5581 5579 5576 5574 5572 5570 5568 5566 5564 5562 5559 5557 5553 5550 5547 5544 5542 5539 5537 5534 5532 5529 5527 5525 5523 5521 5518 5516 5513 5510 5507 5504 5501 5498 5494 5491 5487 5483
5634 5633 5632 5630 5629 5627 5626 5624 5623 5621 5620 5618 5616 5614 5613 5611 5609 5607 5605 5603 5600 5598 5596 5594 5592 5589 5587 5585 5583 5581 5579 5577 5575 5572 5570 5568 5565 5563 5561 5559 5557 5554 5552 5549 5545 5542 5539 5537 5534 5531 5528 5525 5523 5520 5518 5516 5514 5511 5509 5506 5503 5500 5497 5494 5491 5488 5485 5481 5477
5631 5629 5628 5626 5625 5624 5622 5620 5619 5617 5616 5614 5612 5610 5608 5606 5604 5602 5600 5598 5595 5593 5591 5589 5587 5585 5583 5580 5579 5577 5575 5573 5571 5568 5566 5563 5561 5559 5556 5554 5551 5549 5547 5544 5540 5537 5534 5531 5528 5525 5522 5518 5515 5513 5511 5509 5506 5504 5501 5498 5495 5493 5490 5487 5484 5481 5477 5474 5470